User: anonymous   Login
Location: Unspecified
(0.0000°N, 0.0000°E)
Time: 18:02:16
(UTC+00:00)
Language:

CARTOSAT 2A - Orbit

View from above orbital plane
View from above orbital plane
View from above satellite
View from above satellite

Ground track
Ground track

The orbit data is extracted from the following two-line orbital elements,

1 32783U 08021A   19080.34117133  .00000306  00000-0  48820-4 0  9990
2 32783  97.9842 140.5389 0013908  43.8270 316.4050 14.78658089588038
Epoch (UTC): 21 March 2019 08:11:17
Eccentricity: 0.0013908
inclination: 97.9842°
perigee height: 624 km
apogee height: 643 km
right ascension of ascending node: 140.5389°
argument of perigee: 43.8270°
revolutions per day: 14.78658089
mean anomaly at epoch: 316.4050°
orbit number at epoch: 58803

The dashed part of the orbit path shows where the satellite is in the earth's shadow,  

DLR